Printer-friendly version

IAU Minor Planet Center

Minor Planet Center

(15) Eunomia

Orbital Elements

The following orbital elements are taken from MPO 25662
   (15) Eunomia
Epoch 2005 Jan. 30.0 TT = JDT 2453400.5                 Goffin
M 171.66312              (2000.0)            P               Q
n   0.22903038     Peri.   97.66427     +0.83803712     -0.51268883
a   2.6457003      Node   293.34965     +0.38504983     +0.79811983
e   0.1861754      Incl.   11.73095     +0.38656231     +0.31647257
P   4.30           H    5.28          G   0.23           U   0
From 2071 observations at 91 oppositions, 1851-2001, mean residual 0".52.
An explanation of the orbital elements is available.

These orbital elements are also available in forms suitable for loading into a number of popular planetarium-type software programs.


Ephemeris

The following ephemeris is at intervals of five days. A daily ephemeris covering the same time interval is also available.

Personalized ephemerides for this object (and others) can be generated using the MPES.

Date    TT    R. A. (2000) Decl.     Delta      r     Elong.  Phase     V
 
2005 02 10    14 36.10   -28 41.0    2.885    3.136    95.5    18.3    10.9
2005 02 15    14 38.30   -29 10.4    2.815    3.137    99.8    18.1    10.9
2005 02 20    14 39.98   -29 37.9    2.745    3.138   104.2    17.8    10.8
2005 02 25    14 41.11   -30 03.4    2.678    3.138   108.7    17.4    10.7
2005 03 02    14 41.66   -30 26.7    2.612    3.138   113.3    16.9    10.7
2005 03 07    14 41.60   -30 47.4    2.548    3.138   117.9    16.2    10.6
2005 03 12    14 40.92   -31 05.2    2.488    3.138   122.7    15.5    10.5
2005 03 17    14 39.60   -31 19.8    2.431    3.138   127.6    14.6    10.4
2005 03 22    14 37.65   -31 30.8    2.377    3.138   132.5    13.5    10.3
2005 03 27    14 35.11   -31 37.9    2.329    3.137   137.5    12.4    10.3
2005 04 01    14 32.00   -31 40.7    2.285    3.137   142.4    11.2    10.2
2005 04 06    14 28.37   -31 38.9    2.246    3.136   147.3     9.9    10.1
2005 04 11    14 24.30   -31 32.2    2.214    3.135   152.1     8.6    10.0
2005 04 16    14 19.90   -31 20.7    2.188    3.134   156.5     7.3     9.9
2005 04 21    14 15.26   -31 04.3    2.169    3.133   160.2     6.2     9.9
2005 04 26    14 10.52   -30 43.4    2.156    3.131   162.7     5.5     9.8
2005 05 01    14 05.78   -30 18.3    2.151    3.130   163.5     5.2     9.8
2005 05 06    14 01.17   -29 49.6    2.152    3.128   162.3     5.6     9.8
2005 05 11    13 56.81   -29 18.0    2.161    3.127   159.4     6.5     9.9
2005 05 16    13 52.80   -28 44.3    2.176    3.125   155.6     7.7     9.9
2005 05 21    13 49.24   -28 09.4    2.198    3.123   151.1     9.0    10.0
2005 05 26    13 46.17   -27 34.2    2.226    3.121   146.4    10.3    10.1
2005 05 31    13 43.66   -26 59.4    2.260    3.118   141.6    11.7    10.2
2005 06 05    13 41.72   -26 25.8    2.299    3.116   136.7    12.9    10.2
2005 06 10    13 40.39   -25 53.9    2.342    3.113   131.9    14.0    10.3
2005 06 15    13 39.66   -25 24.4    2.390    3.111   127.1    15.1    10.4
2005 06 20    13 39.53   -24 57.5    2.442    3.108   122.4    16.0    10.5
2005 06 25    13 39.98   -24 33.6    2.497    3.105   117.8    16.8    10.5
2005 06 30    13 40.99   -24 12.8    2.555    3.102   113.4    17.5    10.6
2005 07 05    13 42.52   -23 55.1    2.615    3.099   109.0    18.1    10.7
2005 07 10    13 44.57   -23 40.7    2.677    3.095   104.7    18.5    10.7
2005 07 15    13 47.10   -23 29.4    2.740    3.092   100.5    18.9    10.8
2005 07 20    13 50.07   -23 21.2    2.804    3.088    96.4    19.1    10.8

Back to Bright Minor Planets

Astronomical Headlines Index

MPC


Valid HTML 4.01!